sat.trackr.live / text

‹ back to catalog

STARLINK-3971

NORAD 52642 · 2022-052AW

PAYLOAD ACTIVE UNKNOWN

§ Identity

Operator
Country
US
Launch date
2022-05-14
Launch site
AFETR
Launch vehicle
Mass (kg)
RCS (m²)

Purposes: comms

External: N2YO · Heavens-Above · Gunter

§ Orbital elements

Epoch: 2026-09-20T03:13:24.313152Z

Period
93.79 min
Inclination
53.1592°
Eccentricity
0.0001148
Mean motion
15.35398370 rev/d
Perigee alt
459.0 km
Apogee alt
460.5 km
Semi-major
6,837.9 km
B*
1.5876e-5
RAAN
93.4393°
Arg perigee
86.9845°
Mean anomaly
273.1289°
Rev number
24,065

§ Raw data

STARLINK-39711 52642U 22052AW  26263.13430918  .00000173  00000+0  15876-4 0  99992 52642  53.1592  93.4393 0001148  86.9845 273.1289 15.35398370240654

JSON: /api/v1/satellites/52642 · /tle

For live sub-satellite position, see the globe view (requires WebGL).

§ Visibility from observer

Set your observer location to see the next 7 days of passes ≥ 10°. The values pass through the URL so the page stays shareable.

No JS? Fill the form by hand. The geolocation button needs JavaScript.